Retour au catalogue

COSMOS 1535

ActifMilitairePO
NORAD 14679·PAYLOAD·🇷🇺 Russia

Lancé Feb 2, 1984 depuis Plesetsk Cosmodrome

Loading…

Prochains Passages (prochaines 24 heures)

TLE

FraisSource: Space-Track

Époque: Sep 14, 2026, 12:33 UTC

1 14679U 84010A   26257.52358793  .00000090  00000-0  77294-4 0  9996
2 14679  82.9536  88.7042 0043364  85.6184 303.5744 13.75457190107133

Suivez COSMOS 1535 en temps réel avec AllMySat

Download on the App Store